Location: Bathurst
(33.4193°S, 149.5775°E)
Time: 01:38:35
(UTC+10:00)

A-11 Canister half - Pass Details

Date: 22 June 2021
Orbit: 1513 x 1687 km, 47.2° (Epoch: 28 July)

Event Time Altitude Azimuth Distance (km) Brightness Sun altitude
Rises 21:29:34 0° 234° (SW) 4,799 12.0 -54.9°
Reaches altitude 10° 21:32:40 10° 231° (SW) 3,835 11.4 -55.5°
Enters shadow 21:35:03 20° 228° (SW) 3,125 10.8 -56.0°
